Location: Detroit
(42.3310°N, 83.0460°W)
Time: 17:42:45
(UTC-05:00)

X-37B - Pass Details

Date: 25 September 2023
Orbit: 277 x 277 km, 45.0° (Epoch: 01 November)

Event Time Altitude Azimuth Distance (km) Brightness Sun altitude
Exits shadow 06:22:08 23° 292° (WNW) 659 1.3 -11.9°
Maximum altitude 06:23:30 78° 16° (NNE) 287 -0.1 -11.7°
Drops below altitude 10° 06:25:56 10° 104° (ESE) 1,098 4.0 -11.2°
Sets 06:27:51 0° 106° (ESE) 1,909 5.4 -10.9°
